This demonstration page uses our WeatherBlox Daily Observations layout. Learn more.

Left ArrowRight Arrow

36.17497, -115.13722

Hourly Observations for May 28, 2016

Temp ( °F °C ) Dew Point ( °F °C ) Humidity (%) Winds ( mph kmh ) Pressure ( in mb ) Visibility ( mi km ) Precip ( " mm )
12:53 am 00:53 Clear 75 23.9 31 -0.6 20 20 NW 3 6 29.76 1008 10 16.0934 0 0
1:53 am 01:53 Clear 71 21.7 31 -0.6 23 23 NW 6 9 29.77 1008 10 16.0934 0 0
2:53 am 02:53 Clear 71 21.7 32 0 24 24 N 5 7 29.76 1008 10 16.0934 0 0
3:53 am 03:53 Clear 68 20 33 0.6 27 27 NW 7 11 29.77 1008 10 16.0934 0 0
4:53 am 04:53 Clear 68 20 34 1.1 28 28 NW 5 7 29.78 1009 10 16.0934 0 0
5:53 am 05:53 Sunny 66 18.9 33 0.6 29 29 N 8 13 29.8 1009 10 16.0934 0 0
6:53 am 06:53 Sunny 71 21.7 32 0 24 24 N 5 7 29.82 1010 10 16.0934 0 0
7:53 am 07:53 Sunny 76 24.4 33 0.6 21 21 NE 6 9 29.83 1010 10 16.0934 0 0
8:53 am 08:53 Sunny 78 25.6 35 1.7 21 21 SE 7 11 29.84 1011 10 16.0934 0 0
9:53 am 09:53 Sunny 80 26.7 34 1.1 19 19 SE 6 9 29.84 1011 10 16.0934 0 0
10:53 am 10:53 Sunny 82 27.8 35 1.7 18 18 S 8 13 29.85 1011 10 16.0934 0 0
11:53 am 11:53 Sunny 85 29.4 34 1.1 16 16 E 6 9 29.83 1010 10 16.0934 0 0
12:53 pm 12:53 Sunny 87 30.6 33 0.6 14 14 VRB 3 6 29.82 1010 10 16.0934 0 0
1:53 pm 13:53 Sunny 89 31.7 32 0 13 13 S 7 11 29.8 1009 10 16.0934 0 0
2:53 pm 14:53 Sunny 89 31.7 28 -2.2 11 11 SSE 12 19 29.78 1009 10 16.0934 0 0
3:53 pm 15:53 Sunny 90 32.2 27 -2.8 10 10 SSW 15 24 29.77 1008 10 16.0934 0 0
4:53 pm 16:53 Sunny 89 31.7 26 -3.3 10 10 undefined N/A 29.76 1008 10 16.0934 0 0
5:53 pm 17:53 Sunny 90 32.2 26 -3.3 10 10 SSE 14 22 29.75 1008 10 16.0934 0 0
6:53 pm 18:53 Sunny 88 31.1 25 -3.9 10 10 SW 7 11 29.76 1008 10 16.0934 0 0
7:53 pm 19:53 Clear 87 30.6 25 -3.9 10 10 S 6 9 29.77 1008 10 16.0934 0 0
8:53 pm 20:53 Clear 85 29.4 25 -3.9 11 11 SSW 6 9 29.78 1009 10 16.0934 0 0
9:53 pm 21:53 Clear 82 27.8 28 -2.2 14 14 WSW 3 6 29.81 1009 10 16.0934 0 0
10:53 pm 22:53 Clear 80 26.7 28 -2.2 15 15 WNW 6 9 29.82 1010 10 16.0934 0 0
11:53 pm 23:53 Clear 77 25 30 -1.1 18 18 Calm 29.83 1010 10 16.0934 0 0

Powered by AerisWeather